Date String (YYYY-MM-DD hh:mm:ss) UTC,Instrument flags,Ambient pressure (hPa),Sample flow (lpm),Bypass flow (lpm),Sample temperature (°C),Ambient temperature (°C),ASC tube jacket temperature (°C),LED temperature (°C),Box temperature (°C),Sample RH (%),Span deviation,Mass concentration (μg/m³),Mass concentration (μg/m³),Mass concentration (μg/m³)
DateTimeUTC,F1_M11,P_M11,Q1_M11,Q2_M11,T1_M11,T2_M11,T3_M11,T4_M11,T5_M11,U1_M11,ZSPAN_M11,X0_M11,X2_M11,X1_M11
2021-11-29 21:00:00,,0826.8,5.00,0.00,29.9,29.0,00.0,38.8,31.8,11.1,0000.0,0016.69,0003.23,0001.04
2021-11-29 21:01:00,,0826.8,5.00,0.00,29.9,29.2,00.0,38.8,31.8,11.1,0000.0,0016.68,0003.20,0001.02
2021-11-29 21:02:00,,0826.7,4.99,0.00,30.0,29.2,00.0,38.8,31.9,11.0,0000.0,0016.54,0003.19,0000.99
2021-11-29 21:03:00,,0826.8,5.01,0.00,29.9,27.6,00.0,38.8,31.5,11.0,0000.0,0016.30,0003.17,0000.97
2021-11-29 21:04:00,,0826.7,4.98,0.00,29.8,25.8,00.0,38.8,31.0,11.1,0000.0,0016.45,0003.15,0000.95
2021-11-29 21:05:00,,0826.7,5.01,0.00,29.6,25.8,00.0,38.7,31.0,11.1,0000.0,0015.50,0003.15,0000.91
2021-11-29 21:06:00,,0826.8,5.01,0.00,29.6,26.2,00.0,38.7,31.0,11.2,0000.0,0014.73,0003.16,0000.87
2021-11-29 21:07:00,,0826.7,4.99,0.00,29.5,26.7,00.0,38.6,31.1,11.2,0000.0,0014.89,0003.15,0000.85
2021-11-29 21:08:00,,0826.7,5.01,0.00,29.5,27.2,00.0,38.6,31.2,11.2,0000.0,0015.01,0003.05,0000.82
2021-11-29 21:09:00,,0826.7,5.00,0.00,29.5,27.6,00.0,38.6,31.2,11.2,0000.0,0015.59,0002.98,0000.80
2021-11-29 21:10:00,,0826.7,5.00,0.00,29.5,27.9,00.0,38.6,31.3,11.2,0000.0,0015.34,0002.87,0000.78
2021-11-29 21:11:00,,0826.7,5.01,0.00,29.6,28.2,00.0,38.6,31.4,11.2,0000.0,0014.78,0002.81,0000.78
2021-11-29 21:12:00,,0826.7,5.01,0.00,29.6,28.4,00.0,38.6,31.4,11.2,0000.0,0015.43,0002.92,0000.78
2021-11-29 21:13:00,,0826.7,5.01,0.00,29.7,28.6,00.0,38.6,31.5,11.1,0000.0,0016.25,0002.99,0000.79
2021-11-29 21:14:00,,0826.7,4.99,0.00,29.7,28.8,00.0,38.6,31.6,11.1,0000.0,0016.10,0002.90,0000.79
2021-11-29 21:15:00,,0826.7,5.01,0.00,29.8,28.9,00.0,38.7,31.6,11.1,0000.0,0015.81,0002.92,0000.77
2021-11-29 21:16:00,,0826.7,4.99,0.00,29.8,29.0,00.0,38.7,31.7,11.0,0000.0,0015.99,0002.95,0000.77
2021-11-29 21:17:00,,0826.7,5.01,0.00,29.9,29.1,00.0,38.7,31.7,11.0,0000.0,0016.04,0002.90,0000.77
2021-11-29 21:18:00,,0826.7,5.00,0.00,29.9,29.2,00.0,38.7,31.8,11.0,0000.0,0015.88,0002.93,0000.76
2021-11-29 21:19:00,,0826.7,4.99,0.00,29.9,29.2,00.0,38.8,31.8,10.9,0000.0,0015.55,0003.05,0000.76
2021-11-29 21:20:00,,0826.8,4.99,0.00,30.0,29.3,00.0,38.8,31.9,10.9,0000.0,0015.42,0003.10,0000.76
2021-11-29 21:21:00,,0826.7,5.00,0.00,30.0,28.9,00.0,38.8,31.8,10.9,0000.0,0015.24,0003.12,0000.75
2021-11-29 21:22:00,,0826.7,5.00,0.00,29.9,26.8,00.0,38.8,31.2,10.9,0000.0,0015.46,0003.06,0000.74
2021-11-29 21:23:00,,0826.7,5.00,0.00,29.7,25.6,00.0,38.8,30.9,11.0,0000.0,0015.19,0002.96,0000.74
2021-11-29 21:24:00,,0826.7,5.01,0.00,29.6,25.9,00.0,38.7,30.9,11.1,0000.0,0014.30,0002.88,0000.73
2021-11-29 21:25:00,,0826.7,5.00,0.00,29.5,26.4,00.0,38.7,31.0,11.1,0000.0,0014.08,0002.88,0000.73
2021-11-29 21:26:00,,0826.7,5.00,0.00,29.5,26.9,00.0,38.6,31.1,11.1,0000.0,0014.55,0002.90,0000.74
2021-11-29 21:27:00,,0826.8,5.00,0.00,29.5,27.3,00.0,38.6,31.2,11.1,0000.0,0014.71,0002.90,0000.74
2021-11-29 21:28:00,,0826.8,5.00,0.00,29.5,27.7,00.0,38.6,31.3,11.1,0000.0,0015.65,0002.88,0000.73
2021-11-29 21:29:00,,0826.7,4.99,0.00,29.6,28.0,00.0,38.6,31.3,11.1,0000.0,0015.94,0002.76,0000.73
2021-11-29 21:30:00,,0826.8,5.02,0.00,29.6,28.3,00.0,38.6,31.4,11.1,0000.0,0016.09,0002.64,0000.72
2021-11-29 21:31:00,,0826.7,4.99,0.00,29.6,28.5,00.0,38.6,31.5,11.1,0000.0,0015.69,0002.61,0000.70
2021-11-29 21:32:00,,0826.7,5.01,0.00,29.7,28.7,00.0,38.6,31.5,11.1,0000.0,0014.79,0002.62,0000.69
2021-11-29 21:33:00,,0826.7,4.99,0.00,29.7,28.8,00.0,38.6,31.6,11.0,0000.0,0013.95,0002.68,0000.69
2021-11-29 21:34:00,,0826.8,5.00,0.00,29.8,28.9,00.0,38.7,31.7,11.0,0000.0,0014.05,0002.69,0000.69
2021-11-29 21:35:00,,0826.7,5.02,0.00,29.8,29.0,00.0,38.7,31.7,11.0,0000.0,0013.93,0002.70,0000.69
2021-11-29 21:36:00,,0826.8,4.99,0.00,29.9,29.1,00.0,38.7,31.8,10.9,0000.0,0013.72,0002.72,0000.68
2021-11-29 21:37:00,,0826.7,4.99,0.00,29.9,29.2,00.0,38.7,31.8,10.9,0000.0,0012.75,0002.65,0000.67
2021-11-29 21:38:00,,0826.8,5.00,0.00,30.0,29.3,00.0,38.8,31.9,10.8,0000.0,0012.10,0002.59,0000.65
2021-11-29 21:39:00,,0826.8,4.99,0.00,30.0,29.3,00.0,38.8,31.9,10.8,0000.0,0010.44,0002.55,0000.65
2021-11-29 21:40:00,,0826.8,5.01,0.00,30.0,28.5,00.0,38.8,31.7,10.8,0000.0,0010.79,0002.63,0000.65
2021-11-29 21:41:00,,0826.7,5.01,0.00,29.9,26.2,00.0,38.8,31.1,10.9,0000.0,0010.76,0002.70,0000.64
2021-11-29 21:42:00,,0826.8,5.00,0.00,29.7,25.7,00.0,38.8,30.9,10.9,0000.0,0011.00,0002.75,0000.65
2021-11-29 21:43:00,,0826.7,4.99,0.00,29.6,26.1,00.0,38.7,31.0,11.0,0000.0,0010.98,0002.63,0000.64
2021-11-29 21:44:00,,0826.7,5.00,0.00,29.5,26.6,00.0,38.7,31.0,11.0,0000.0,0012.03,0002.55,0000.62
2021-11-29 21:45:00,,0826.8,5.00,0.00,29.5,27.1,00.0,38.6,31.1,11.0,0000.0,0012.19,0002.51,0000.61
2021-11-29 21:46:00,,0826.8,4.99,0.00,29.5,27.5,00.0,38.6,31.2,11.0,0000.0,0012.84,0002.53,0000.60
2021-11-29 21:47:00,,0826.9,5.01,0.00,29.6,27.9,00.0,38.6,31.3,11.0,0000.0,0012.77,0002.48,0000.59
2021-11-29 21:48:00,,0827.2,4.99,0.00,29.6,28.2,00.0,38.6,31.4,11.0,0000.0,0012.89,0002.43,0000.59
2021-11-29 21:49:00,,0826.9,5.00,0.00,29.7,28.4,00.0,38.6,31.5,11.0,0000.0,0013.49,0002.35,0000.58
2021-11-29 21:50:00,,0827.0,5.01,0.00,29.7,28.6,00.0,38.6,31.5,11.0,0000.0,0013.51,0002.31,0000.57
2021-11-29 21:51:00,,0827.3,5.00,0.00,29.7,28.8,00.0,38.7,31.6,10.9,0000.0,0012.58,0002.32,0000.57
2021-11-29 21:52:00,,0826.8,5.00,0.00,29.8,29.0,00.0,38.7,31.7,10.9,0000.0,0011.93,0002.31,0000.58
2021-11-29 21:53:00,,0826.9,5.01,0.00,29.9,29.1,00.0,38.7,31.7,10.9,0000.0,0011.56,0002.20,0000.57
2021-11-29 21:54:00,,0826.8,5.00,0.00,29.9,29.2,00.0,38.7,31.8,10.9,0000.0,0012.21,0002.30,0000.57
2021-11-29 21:55:00,,0826.8,4.99,0.00,29.9,29.3,00.0,38.8,31.9,10.9,0000.0,0012.99,0002.34,0000.57
2021-11-29 21:56:00,,0826.9,5.00,0.00,30.0,28.4,00.0,38.8,31.6,10.9,0000.0,0013.08,0002.37,0000.56
2021-11-29 21:57:00,,0826.8,5.01,0.00,29.8,26.1,00.0,38.7,31.0,11.0,0000.0,0012.37,0002.28,0000.56
2021-11-29 21:58:00,,0826.9,4.99,0.00,29.6,25.6,00.0,38.7,30.9,11.1,0000.0,0013.15,0002.27,0000.56
2021-11-29 21:59:00,,0826.8,5.00,0.00,29.6,26.0,00.0,38.7,31.0,11.1,0000.0,0013.67,0002.33,0000.56
